TimeMDT,TemperatureF,Dew PointF,Humidity,Sea Level PressureIn,VisibilityMPH,Wind Direction,Wind SpeedMPH,Gust SpeedMPH,PrecipitationIn,Events,Conditions,WindDirDegrees,DateUTC
12:15 AM,46.4,35.6,66,29.98,10.0,ESE,3.5,-,N/A,,Clear,120,2013-10-01 06:15:00
12:35 AM,46.4,33.8,62,29.98,10.0,SSE,4.6,-,N/A,,Clear,150,2013-10-01 06:35:00
12:55 AM,44.6,33.8,66,29.98,10.0,ENE,5.8,-,N/A,,Scattered Clouds,60,2013-10-01 06:55:00
1:15 AM,44.6,33.8,66,29.98,10.0,East,4.6,-,N/A,,Scattered Clouds,100,2013-10-01 07:15:00
1:35 AM,42.8,33.8,70,29.98,10.0,East,4.6,-,N/A,,Clear,90,2013-10-01 07:35:00
1:55 AM,42.8,33.8,70,29.98,10.0,East,3.5,-,N/A,,Scattered Clouds,100,2013-10-01 07:55:00
2:15 AM,42.8,32.0,66,29.98,10.0,East,5.8,-,N/A,,Mostly Cloudy,80,2013-10-01 08:15:00
2:35 AM,44.6,33.8,66,29.99,10.0,East,3.5,-,N/A,,Overcast,90,2013-10-01 08:35:00
2:55 AM,44.6,33.8,66,29.99,10.0,ESE,4.6,-,N/A,,Overcast,120,2013-10-01 08:55:00
3:15 AM,44.6,33.8,66,29.98,10.0,ESE,3.5,-,N/A,,Overcast,110,2013-10-01 09:15:00
3:35 AM,44.6,35.6,71,29.98,10.0,East,3.5,-,N/A,,Overcast,90,2013-10-01 09:35:00
3:55 AM,42.8,33.8,70,29.98,10.0,Calm,Calm,-,N/A,,Mostly Cloudy,0,2013-10-01 09:55:00
4:15 AM,42.8,33.8,70,29.98,10.0,Calm,Calm,-,N/A,,Mostly Cloudy,0,2013-10-01 10:15:00
4:35 AM,44.6,33.8,66,29.98,10.0,Calm,Calm,-,N/A,,Scattered Clouds,0,2013-10-01 10:35:00
4:55 AM,42.8,33.8,70,29.98,10.0,Calm,Calm,-,N/A,,Clear,0,2013-10-01 10:55:00
5:15 AM,44.6,35.6,71,29.98,10.0,Calm,Calm,-,N/A,,Scattered Clouds,0,2013-10-01 11:15:00
5:35 AM,44.6,35.6,71,29.98,10.0,Calm,Calm,-,N/A,,Mostly Cloudy,0,2013-10-01 11:35:00
5:55 AM,44.6,35.6,71,29.98,10.0,Calm,Calm,-,N/A,,Overcast,0,2013-10-01 11:55:00
6:15 AM,44.6,35.6,71,29.98,10.0,ENE,3.5,-,N/A,,Overcast,60,2013-10-01 12:15:00
6:35 AM,44.6,35.6,71,29.99,10.0,NE,3.5,-,N/A,,Overcast,40,2013-10-01 12:35:00
6:55 AM,42.8,35.6,76,29.97,10.0,East,5.8,-,N/A,,Overcast,100,2013-10-01 12:55:00
7:15 AM,44.6,35.6,71,29.98,10.0,Calm,Calm,-,N/A,,Overcast,0,2013-10-01 13:15:00
7:35 AM,44.6,35.6,71,29.98,10.0,ENE,3.5,-,N/A,,Overcast,70,2013-10-01 13:35:00
7:55 AM,44.6,35.6,71,29.99,10.0,Calm,Calm,-,N/A,,Overcast,0,2013-10-01 13:55:00
8:15 AM,44.6,35.6,71,29.99,10.0,Calm,Calm,-,N/A,,Overcast,0,2013-10-01 14:15:00
8:35 AM,44.6,37.4,76,30.00,10.0,West,4.6,-,N/A,,Overcast,270,2013-10-01 14:35:00
8:55 AM,46.4,37.4,71,30.01,10.0,Calm,Calm,-,N/A,,Overcast,0,2013-10-01 14:55:00
9:15 AM,46.4,37.4,71,30.01,10.0,WSW,3.5,-,N/A,,Overcast,250,2013-10-01 15:15:00
9:35 AM,46.4,37.4,71,30.01,10.0,Calm,Calm,-,N/A,,Overcast,0,2013-10-01 15:35:00
9:55 AM,46.4,37.4,71,30.02,10.0,West,3.5,-,N/A,,Overcast,270,2013-10-01 15:55:00
10:15 AM,48.2,37.4,66,30.02,10.0,Calm,Calm,-,N/A,,Overcast,0,2013-10-01 16:15:00
10:35 AM,48.2,37.4,66,30.02,10.0,North,3.5,-,N/A,,Overcast,360,2013-10-01 16:35:00
10:55 AM,48.2,37.4,66,30.03,10.0,Calm,Calm,-,N/A,,Overcast,0,2013-10-01 16:55:00
11:15 AM,50.0,37.4,62,30.03,8.0,Calm,Calm,-,N/A,,Overcast,0,2013-10-01 17:15:00
11:35 AM,51.8,37.4,58,30.03,10.0,North,4.6,-,N/A,,Mostly Cloudy,10,2013-10-01 17:35:00
11:55 AM,51.8,39.2,62,30.03,10.0,NNE,4.6,-,N/A,,Overcast,20,2013-10-01 17:55:00
12:15 PM,55.4,39.2,54,30.02,10.0,North,5.8,-,N/A,,Scattered Clouds,360,2013-10-01 18:15:00
12:35 PM,57.2,37.4,48,30.02,10.0,NNW,9.2,-,N/A,,Clear,330,2013-10-01 18:35:00
12:55 PM,57.2,35.6,44,30.02,10.0,North,9.2,-,N/A,,Clear,350,2013-10-01 18:55:00
1:15 PM,59.0,37.4,45,30.02,10.0,North,9.2,-,N/A,,Clear,350,2013-10-01 19:15:00
1:35 PM,59.0,35.6,42,30.02,10.0,WNW,9.2,-,N/A,,Scattered Clouds,300,2013-10-01 19:35:00
1:55 PM,59.0,35.6,42,30.01,10.0,North,8.1,-,N/A,,Partly Cloudy,350,2013-10-01 19:55:00
2:15 PM,60.8,37.4,42,30.00,10.0,NW,9.2,-,N/A,,Clear,320,2013-10-01 20:15:00
2:35 PM,60.8,35.6,39,30.00,10.0,North,8.1,-,N/A,,Clear,360,2013-10-01 20:35:00
2:55 PM,60.8,37.4,42,30.00,10.0,North,8.1,-,N/A,,Clear,350,2013-10-01 20:55:00
3:15 PM,60.8,37.4,42,30.00,10.0,NNW,3.5,-,N/A,,Scattered Clouds,330,2013-10-01 21:15:00
3:35 PM,62.6,37.4,39,29.99,10.0,North,6.9,-,N/A,,Partly Cloudy,10,2013-10-01 21:35:00
3:55 PM,62.6,37.4,39,30.00,10.0,NNW,6.9,-,N/A,,Partly Cloudy,330,2013-10-01 21:55:00
4:15 PM,62.6,37.4,39,29.99,10.0,NNW,5.8,-,N/A,,Mostly Cloudy,340,2013-10-01 22:15:00
4:35 PM,62.6,37.4,39,29.99,10.0,North,9.2,-,N/A,,Mostly Cloudy,10,2013-10-01 22:35:00
4:55 PM,62.6,37.4,39,29.99,10.0,NW,8.1,-,N/A,,Partly Cloudy,310,2013-10-01 22:55:00
5:15 PM,60.8,35.6,39,30.00,10.0,WNW,9.2,-,N/A,,Clear,300,2013-10-01 23:15:00
5:35 PM,60.8,35.6,39,30.00,10.0,NNW,6.9,-,N/A,,Clear,330,2013-10-01 23:35:00
5:55 PM,62.6,37.4,39,30.00,10.0,North,5.8,-,N/A,,Mostly Cloudy,10,2013-10-01 23:55:00
6:15 PM,60.8,33.8,36,30.01,10.0,WNW,11.5,-,N/A,,Overcast,300,2013-10-02 00:15:00
6:35 PM,59.0,32.0,36,30.01,10.0,WNW,8.1,-,N/A,,Overcast,300,2013-10-02 00:35:00
6:55 PM,59.0,33.8,39,30.01,10.0,NW,6.9,-,N/A,,Overcast,320,2013-10-02 00:55:00
7:15 PM,57.2,32.0,38,30.01,10.0,NW,5.8,-,N/A,,Overcast,310,2013-10-02 01:15:00
7:35 PM,57.2,32.0,38,30.02,10.0,WNW,4.6,-,N/A,,Mostly Cloudy,300,2013-10-02 01:35:00
7:55 PM,53.6,32.0,44,30.03,10.0,WNW,5.8,-,N/A,,Partly Cloudy,290,2013-10-02 01:55:00
8:15 PM,53.6,32.0,44,30.04,10.0,West,5.8,-,N/A,,Partly Cloudy,270,2013-10-02 02:15:00
8:35 PM,53.6,32.0,44,30.05,10.0,West,6.9,-,N/A,,Clear,280,2013-10-02 02:35:00
8:55 PM,51.8,30.2,44,30.07,10.0,NW,20.7,26.5,N/A,,Clear,310,2013-10-02 02:55:00
9:15 PM,51.8,32.0,47,30.08,10.0,NW,16.1,25.3,N/A,,Clear,310,2013-10-02 03:15:00
9:35 PM,48.2,33.8,58,30.10,10.0,NW,13.8,19.6,N/A,,Clear,310,2013-10-02 03:35:00
9:55 PM,48.2,33.8,58,30.11,10.0,NNW,9.2,-,N/A,,Clear,330,2013-10-02 03:55:00
10:15 PM,46.4,33.8,62,30.11,10.0,NW,6.9,-,N/A,,Clear,320,2013-10-02 04:15:00
10:35 PM,46.4,32.0,57,30.11,10.0,WNW,11.5,-,N/A,,Clear,300,2013-10-02 04:35:00
10:55 PM,46.4,32.0,57,30.12,10.0,WNW,6.9,-,N/A,,Clear,290,2013-10-02 04:55:00
11:15 PM,46.4,32.0,57,30.13,10.0,West,9.2,-,N/A,,Partly Cloudy,280,2013-10-02 05:15:00
11:35 PM,46.4,32.0,57,30.13,10.0,West,9.2,-,N/A,,Clear,280,2013-10-02 05:35:00
11:55 PM,44.6,30.2,57,30.13,10.0,West,5.8,-,N/A,,Clear,270,2013-10-02 05:55:00